Weather History for KLRD - July, 2013

Change the Weather History Date:

Friday, July 19, 2013

  Actual Average Record
Temperature  
Mean Temperature 85 °F 88 °F  
Max Temperature 96 °F 99 °F 109 °F (1918)
Min Temperature 74 °F 77 °F 68 °F (1940)
Degree Days  
Heating Degree Days 0 0  
Month to date heating degree days 0 0  
Since 1 June heating degree days 0 0  
Since 1 July heating degree days 0 0  
Cooling Degree Days 20 23  
Month to date cooling degree days 420 437  
Year to date cooling degree days 2327 2240  
Since 1 June cooling degree days 1126 1097  
Growing Degree Days 34 (Base 50)    
Moisture  
Dew Point 71 °F    
Average Humidity 69    
Maximum Humidity 97    
Minimum Humidity 39    
Precipitation  
Precipitation 0.03 in 0.06 in 1.24 in (1935)
Month to date precipitation 2.27 1.44  
Year to date precipitation 11.36 10.54  
Sea Level Pressure  
Sea Level Pressure 29.97 in    
Wind  
Wind Speed 8 mph (ESE)    
Max Wind Speed 31 mph    
Max Gust Speed 38 mph    
Visibility 9 miles    
Events      
T = Trace of Precipitation, MM = Missing Value Source: NWS Daily Summary

Daily Weather History Graph

Daily Weather History Graph

Search for Another Location

Airport or City:

Trip Planner

Search our weather history database for the weather conditions in past years. The results will help you decide how hot, cold, wet, or windy it might be!

Date:

Astronomy

Jul. 19, 2013 Rise Set
Actual Time 6:54 AM CDT 8:33 PM CDT
Civil Twilight 6:28 AM CDT 8:59 PM CDT
Nautical Twilight 5:57 AM CDT 9:30 PM CDT
Astronomical Twilight 5:25 AM CDT 10:02 PM CDT
Moon 5:38 PM CDT (7/19) 3:35 AM CDT (7/19)
Length of Visible Light 14h 30m
Length of Day
13h 39m
Waxing Gibbous, 87% of the Moon is Illuminated
Jul 19
Waxing Gibbous
Jul 22
Full
Jul 29
Last Quarter
Aug 6
New
Aug 14
First Quarter

Hourly Weather History & Observations

Time (CDT) Temp. Heat Index Dew Point Humidity Pressure Visibility Wind Dir Wind Speed Gust Speed Precip Events Conditions
12:56 AM 79.0 °F - 70.9 °F 76% 30.03 in 10.0 mi ESE 6.9 mph - N/A   Clear
1:56 AM 77.9 °F - 70.9 °F 79% 30.02 in 10.0 mi ESE 6.9 mph - N/A   Clear
2:56 AM 77.0 °F - 72.0 °F 84% 30.02 in 10.0 mi East 5.8 mph - N/A   Clear
3:56 AM 75.9 °F - 72.0 °F 87% 30.01 in 10.0 mi East 5.8 mph - N/A   Clear
4:56 AM 75.9 °F - 72.9 °F 90% 30.00 in 10.0 mi ESE 4.6 mph - N/A   Clear
5:56 AM 74.8 °F - 72.9 °F 94% 30.00 in 10.0 mi East 3.5 mph - N/A   Partly Cloudy
6:56 AM 73.9 °F - 72.9 °F 96% 30.01 in 10.0 mi ENE 6.9 mph - N/A   Partly Cloudy
7:56 AM 75.9 °F - 72.9 °F 90% 30.01 in 10.0 mi East 5.8 mph - N/A   Clear
8:35 AM 78.8 °F - 73.4 °F 83% 30.06 in 10.0 mi ESE 6.9 mph - N/A   Partly Cloudy
8:57 AM 79.9 °F - 72.9 °F 79% 30.03 in 10.0 mi ESE 9.2 mph - N/A   Scattered Clouds
9:28 AM 80.6 °F 84.6 °F 71.6 °F 74% 30.07 in 10.0 mi SE 9.2 mph - N/A   Mostly Cloudy
9:44 AM 80.6 °F 84.6 °F 71.6 °F 74% 30.07 in 10.0 mi SE 8.1 mph - N/A   Scattered Clouds
9:56 AM 79.9 °F - 72.0 °F 77% 30.04 in 10.0 mi SSE 8.1 mph - N/A   Mostly Cloudy
10:56 AM 84.9 °F 90.1 °F 70.9 °F 63% 30.03 in 10.0 mi South 8.1 mph - N/A   Mostly Cloudy
11:56 AM 86.9 °F 91.0 °F 68.9 °F 55% 30.01 in 10.0 mi Calm Calm - N/A   Mostly Cloudy
12:56 PM 88.9 °F 93.0 °F 68.9 °F 51% 29.99 in 10.0 mi Variable 3.5 mph - N/A   Mostly Cloudy
1:56 PM 91.9 °F 96.9 °F 68.9 °F 47% 29.96 in 10.0 mi NNE 5.8 mph - N/A   Mostly Cloudy
2:56 PM 92.8 °F 97.1 °F 68.0 °F 44% 29.93 in 10.0 mi Variable 6.9 mph - N/A   Partly Cloudy
3:56 PM 95.0 °F 99.0 °F 66.9 °F 40% 29.90 in 10.0 mi East 9.2 mph - N/A   Clear
4:56 PM 93.9 °F 99.1 °F 68.9 °F 44% 29.88 in 10.0 mi NNE 10.4 mph - N/A   Scattered Clouds
5:01 PM 89.6 °F 96.2 °F 71.6 °F 55% 29.94 in 1.5 mi SE 23.0 mph 38.0 mph N/A   Squalls
5:03 PM 87.8 °F 93.8 °F 71.6 °F 58% 29.93 in 0.5 mi Variable 5.8 mph - N/A   Squalls
5:14 PM 82.4 °F 87.2 °F 71.6 °F 70% 29.91 in 1.0 mi West 8.1 mph 18.4 mph N/A   Haze
5:16 PM 84.2 °F 89.6 °F 71.6 °F 66% 29.91 in 2.0 mi West 3.5 mph 18.4 mph N/A   Haze
5:24 PM 82.4 °F 88.2 °F 73.4 °F 74% 29.91 in 10.0 mi West 3.5 mph - N/A   Scattered Clouds
5:56 PM 86.9 °F 94.1 °F 72.9 °F 63% 29.86 in 10.0 mi NNE 3.5 mph - N/A   Scattered Clouds
6:56 PM 88.0 °F 93.8 °F 70.9 °F 57% 29.87 in 10.0 mi East 17.3 mph - N/A   Scattered Clouds
7:56 PM 81.9 °F 87.0 °F 72.9 °F 74% 29.88 in 10.0 mi South 16.1 mph - N/A   Overcast
8:56 PM 83.8 °F 89.8 °F 72.9 °F 69% 29.91 in 10.0 mi ENE 5.8 mph - N/A   Mostly Cloudy
9:56 PM 83.8 °F 88.1 °F 70.0 °F 63% 29.93 in 10.0 mi ESE 13.8 mph - N/A   Mostly Cloudy
10:56 PM 82.9 °F 87.5 °F 70.9 °F 67% 29.96 in 10.0 mi SE 12.7 mph - N/A   Overcast
11:56 PM 81.9 °F 86.6 °F 72.0 °F 72% 29.97 in 10.0 mi SE 12.7 mph - N/A   Mostly Cloudy